Weather in Savino

Russia / Smolensk Oblast     55°06′22″N   32°19′47″E
temp.,
°C
wind,
m/s
gust,
m/s
humid.,
%
clouds,
%
prec.,
mm/h
press.,
hPa
HPBL,
m
4 march, thu
thu400:000w5148659 0.0 1013518
03:00−1wsw5148462 0.0 1010567
06:00−1w5118584 0.0 1007812
09:000w499291 0.1 1005552
12:000w5992100 0.1 1004567
15:000w5894100 0.3 1003626
18:00−1n4895100 1.0 1003595
21:00−3nw2791100 1.2 1005212
5 march, fri
fri500:00−4nw2485100 0.0 1006121
03:00−5nw389372 0.0 1007271
06:00−6nw379561 0.0 1009353
09:00−6nnw368866 0.0 1010387
12:00−3nnw24670 0.0 1011726
15:00−2wnw23602 0.0 10121066
18:00−3wsw227483 0.0 101235
21:00−5ssw247990 0.0 1014124
6 march, sat
sat600:00−5ssw2593100 0.0 1015277
03:00−5n61088100 0.4 1016615
06:00−6n5986100 0.5 1017834
09:00−7nnw5885100 0.6 1019631
12:00−5nnw4571100 0.1 10201047
15:00−4wnw4663100 0.1 10201332
18:00−5wsw387070 0.0 1019530
21:00−5wsw5126978 0.0 1017826
7 march, sun
sun700:00−4wsw71466100 0.0 10131057
03:00−3wsw81672100 0.0 10091175
06:00−4wsw91790100 1.1 10031187
09:00−2wsw101891100 3.0 9991284
12:00−2nw81292100 3.6 9981059
15:00−3wnw7146797 4.7 9991947
18:00−5w6136650 0.1 10001301
21:00−5w5137771 0.2 10011429
8 march, mon
mon800:00−7wnw61377100 0.1 10011116
03:00−7nw61279100 0.4 10041200
06:00−10nw41084100 0.1 1006759
09:00−9nw488698 0.1 1008812
12:00−7nw5776100 0.2 10101157
15:00−7nnw5778100 0.4 10121031
18:00−9nnw4882100 0.3 1014885
21:00−10nnw51088100 0.3 1017889